Location: The Rolnick Observatory
(41.1711°N, 73.3275°W)
Time: 20:56:02
(UTC-05:00)

OTV 5 (USA 277) - Visible Passes

Search period start: 19 February 2019 00:00
Search period end: 01 March 2019 00:00
Orbit: 342 x 346 km, 54.5° (Epoch: 17 February)

Date Brightness Start Highest point End Pass type
(mag) Time Alt. Az. Time Alt. Az. Time Alt. Az.
21 Feb ? 18:56:51 10° SSE 18:56:53 10° SSE 18:56:53 10° SSE visible
22 Feb ? 19:19:17 10° SW 19:20:41 25° SSW 19:20:41 25° SSW visible
23 Feb ? 18:09:23 10° SSE 18:11:08 15° SE 18:12:50 10° E visible
23 Feb ? 19:43:03 10° WSW 19:44:19 22° W 19:44:19 22° W visible
24 Feb ? 18:31:45 10° SSW 18:34:33 52° SE 18:36:21 19° ENE visible
24 Feb ? 20:07:40 10° WNW 20:07:49 11° WNW 20:07:49 11° WNW visible
25 Feb ? 18:55:27 10° WSW 18:58:12 41° NW 18:59:43 21° NNE visible
26 Feb ? 19:20:02 10° WNW 19:22:05 17° NNW 19:22:57 15° N visible
27 Feb ? 18:07:52 10° WSW 18:10:38 43° NW 18:13:26 10° NE visible
28 Feb ? 18:32:25 10° WNW 18:34:31 18° NNW 18:36:36 10° NNE visible
